Time,TemperatureF,DewpointF,PressureIn,WindDirection,WindDirectionDegrees,WindSpeedMPH,WindSpeedGustMPH,Humidity,HourlyPrecipIn,Conditions,Clouds,dailyrainin,SoftwareType,DateUTC
2013-08-04 00:00:00,60.5,61.0,30.86,NE,42,2.1,3.3,100,0.00,NA,NA,-99.99,BCS,2013-08-04 07:00:00,
2013-08-04 00:05:00,60.4,60.0,30.86,NNE,18,0.9,3.6,100,0.00,NA,NA,-99.99,BCS,2013-08-04 07:05:00,
2013-08-04 00:15:00,60.1,60.0,30.86,North,352,1.2,3.9,100,0.00,NA,NA,-99.99,BCS,2013-08-04 07:15:00,
2013-08-04 00:19:00,60.1,60.0,30.86,North,357,0.9,2.7,100,0.00,NA,NA,-99.99,BCS,2013-08-04 07:19:00,
2013-08-04 00:25:00,59.9,60.0,30.86,NE,41,2.7,3.6,100,0.00,NA,NA,-99.99,BCS,2013-08-04 07:25:00,
2013-08-04 00:30:00,59.9,60.0,30.86,North,5,1.8,4.5,100,0.00,NA,NA,-99.99,BCS,2013-08-04 07:30:00,
2013-08-04 00:35:00,59.9,60.0,30.86,North,356,1.5,3.6,100,0.00,NA,NA,-99.99,BCS,2013-08-04 07:35:00,
2013-08-04 00:40:00,59.7,60.0,30.86,NNE,21,0.6,3.6,100,0.00,NA,NA,-99.99,BCS,2013-08-04 07:40:00,
2013-08-04 00:44:00,59.6,60.0,30.86,NW,320,1.8,3.6,100,0.00,NA,NA,-99.99,BCS,2013-08-04 07:44:00,
2013-08-04 00:49:00,59.5,60.0,30.86,NNE,14,1.2,3.6,100,0.00,NA,NA,-99.99,BCS,2013-08-04 07:49:00,
2013-08-04 00:54:00,59.5,60.0,30.86,North,5,1.2,2.7,100,0.00,NA,NA,-99.99,BCS,2013-08-04 07:54:00,
2013-08-04 01:00:00,59.6,60.0,30.86,WNW,287,1.2,3.0,100,0.00,NA,NA,-99.99,BCS,2013-08-04 08:00:00,
2013-08-04 01:05:00,59.6,60.0,30.86,NE,51,0.9,2.7,100,0.00,NA,NA,-99.99,BCS,2013-08-04 08:05:00,
2013-08-04 01:10:00,59.5,60.0,30.86,ENE,62,1.8,3.9,100,0.00,NA,NA,-99.99,BCS,2013-08-04 08:10:00,
2013-08-04 01:15:00,59.5,60.0,30.86,NW,319,1.2,3.3,100,0.00,NA,NA,-99.99,BCS,2013-08-04 08:15:00,
2013-08-04 01:20:00,59.5,60.0,30.86,North,5,1.8,3.3,100,0.00,NA,NA,-99.99,BCS,2013-08-04 08:20:00,
2013-08-04 01:24:00,59.4,59.0,30.86,NNE,29,1.2,4.2,100,0.00,NA,NA,-99.99,BCS,2013-08-04 08:24:00,
2013-08-04 01:35:00,59.4,59.0,30.86,NNW,335,2.7,3.6,100,0.00,NA,NA,-99.99,BCS,2013-08-04 08:35:00,
2013-08-04 01:40:00,59.5,59.0,30.86,ENE,60,1.5,2.7,100,0.00,NA,NA,-99.99,BCS,2013-08-04 08:40:00,
2013-08-04 01:45:00,59.6,60.0,30.86,East,82,0.3,2.4,100,0.00,NA,NA,-99.99,BCS,2013-08-04 08:45:00,
2013-08-04 01:50:00,59.7,60.0,30.86,NNE,29,1.2,2.4,100,0.00,NA,NA,-99.99,BCS,2013-08-04 08:50:00,
2013-08-04 01:55:00,59.7,60.0,30.86,North,358,0.9,3.6,100,0.00,NA,NA,-99.99,BCS,2013-08-04 08:55:00,
2013-08-04 01:59:00,59.6,60.0,30.86,North,352,1.2,3.6,100,0.00,NA,NA,-99.99,BCS,2013-08-04 08:59:00,
2013-08-04 02:05:00,59.6,60.0,30.86,NNW,335,1.8,2.4,100,0.00,NA,NA,-99.99,BCS,2013-08-04 09:05:00,
2013-08-04 02:10:00,59.6,60.0,30.86,ENE,68,1.8,3.3,100,0.00,NA,NA,-99.99,BCS,2013-08-04 09:10:00,
2013-08-04 02:15:00,59.6,60.0,30.86,North,355,2.4,3.3,100,0.00,NA,NA,-99.99,BCS,2013-08-04 09:15:00,
2013-08-04 02:20:00,59.6,60.0,30.86,North,359,2.1,3.6,100,0.00,NA,NA,-99.99,BCS,2013-08-04 09:20:00,
2013-08-04 02:25:00,59.6,60.0,30.86,North,6,0.3,3.0,100,0.00,NA,NA,-99.99,BCS,2013-08-04 09:25:00,
2013-08-04 02:30:00,59.5,60.0,30.86,NNW,341,2.7,3.0,100,0.00,NA,NA,-99.99,BCS,2013-08-04 09:30:00,
2013-08-04 02:35:00,59.5,59.0,30.86,North,11,2.1,3.6,100,0.00,NA,NA,-99.99,BCS,2013-08-04 09:35:00,
2013-08-04 02:39:00,59.6,60.0,30.86,NE,54,1.5,2.4,100,0.00,NA,NA,-99.99,BCS,2013-08-04 09:39:00,
2013-08-04 02:45:00,59.6,60.0,30.86,ENE,57,1.5,2.7,100,0.00,NA,NA,-99.99,BCS,2013-08-04 09:45:00,
2013-08-04 02:50:00,59.6,60.0,30.86,ENE,75,1.2,2.4,100,0.00,NA,NA,-99.99,BCS,2013-08-04 09:50:00,
2013-08-04 02:55:00,59.7,60.0,30.86,North,353,0.0,2.4,100,0.00,NA,NA,-99.99,BCS,2013-08-04 09:55:00,
2013-08-04 03:00:00,59.6,60.0,30.86,NNE,23,2.1,3.3,100,0.00,NA,NA,-99.99,BCS,2013-08-04 10:00:00,
2013-08-04 03:05:00,59.7,60.0,30.86,North,11,0.6,2.1,100,0.00,NA,NA,-99.99,BCS,2013-08-04 10:05:00,
2013-08-04 03:09:00,59.8,60.0,30.86,NE,34,2.4,2.4,100,0.00,NA,NA,-99.99,BCS,2013-08-04 10:09:00,
2013-08-04 03:15:00,59.8,60.0,30.86,ESE,123,1.5,3.0,100,0.00,NA,NA,-99.99,BCS,2013-08-04 10:15:00,
2013-08-04 03:20:00,59.8,60.0,30.86,ESE,123,0.9,1.5,100,0.00,NA,NA,-99.99,BCS,2013-08-04 10:20:00,
2013-08-04 03:25:00,59.9,60.0,30.85,ESE,118,0.9,2.4,100,0.00,NA,NA,-99.99,BCS,2013-08-04 10:25:00,
2013-08-04 03:35:00,59.9,60.0,30.85,SSE,160,1.2,1.8,100,0.00,NA,NA,-99.99,BCS,2013-08-04 10:35:00,
2013-08-04 03:40:00,60.0,60.0,30.86,SE,126,0.9,1.8,100,0.00,NA,NA,-99.99,BCS,2013-08-04 10:40:00,
2013-08-04 03:45:00,60.1,60.0,30.86,SE,124,0.0,2.7,100,0.00,NA,NA,-99.99,BCS,2013-08-04 10:45:00,
2013-08-04 03:50:00,60.1,60.0,30.85,South,188,0.9,2.7,100,0.00,NA,NA,-99.99,BCS,2013-08-04 10:50:00,
2013-08-04 04:00:00,60.2,60.0,30.86,SE,124,0.9,1.8,100,0.00,NA,NA,-99.99,BCS,2013-08-04 11:00:00,
2013-08-04 04:05:00,60.0,60.0,30.86,SE,129,0.9,1.5,100,0.00,NA,NA,-99.99,BCS,2013-08-04 11:05:00,
2013-08-04 04:10:00,60.4,60.0,30.86,SSE,166,2.4,2.7,100,0.00,NA,NA,-99.99,BCS,2013-08-04 11:10:00,
2013-08-04 04:15:00,60.2,60.0,30.86,ENE,63,0.9,2.4,100,0.00,NA,NA,-99.99,BCS,2013-08-04 11:15:00,
2013-08-04 04:20:00,60.0,60.0,30.86,ESE,113,0.0,2.1,100,0.00,NA,NA,-99.99,BCS,2013-08-04 11:20:00,
2013-08-04 04:25:00,60.0,60.0,30.86,ESE,113,0.0,0.9,100,0.00,NA,NA,-99.99,BCS,2013-08-04 11:25:00,
2013-08-04 04:30:00,60.1,60.0,30.86,South,182,0.6,1.8,100,0.00,NA,NA,-99.99,BCS,2013-08-04 11:30:00,
2013-08-04 04:35:00,60.0,60.0,30.86,SSE,151,0.0,1.8,100,0.00,NA,NA,-99.99,BCS,2013-08-04 11:35:00,
2013-08-04 04:40:00,59.9,60.0,30.86,SSE,151,0.0,1.2,100,0.00,NA,NA,-99.99,BCS,2013-08-04 11:40:00,
2013-08-04 04:45:00,59.8,60.0,30.86,ENE,78,0.6,3.3,100,0.00,NA,NA,-99.99,BCS,2013-08-04 11:45:00,
2013-08-04 04:50:00,59.8,60.0,30.86,SE,136,3.0,3.3,100,0.00,NA,NA,-99.99,BCS,2013-08-04 11:50:00,
2013-08-04 04:55:00,59.8,60.0,30.87,NNE,27,1.2,3.9,100,0.00,NA,NA,-99.99,BCS,2013-08-04 11:55:00,
2013-08-04 05:00:00,59.9,60.0,30.87,East,80,0.9,2.1,100,0.00,NA,NA,-99.99,BCS,2013-08-04 12:00:00,
2013-08-04 05:05:00,59.9,60.0,30.87,North,5,0.0,2.4,100,0.00,NA,NA,-99.99,BCS,2013-08-04 12:05:00,
2013-08-04 05:09:00,59.8,60.0,30.87,North,2,0.6,1.5,100,0.00,NA,NA,-99.99,BCS,2013-08-04 12:09:00,
2013-08-04 05:15:00,59.8,60.0,30.87,ESE,120,0.6,3.3,100,0.00,NA,NA,-99.99,BCS,2013-08-04 12:15:00,
2013-08-04 05:20:00,59.8,60.0,30.87,ENE,60,1.5,3.3,100,0.00,NA,NA,-99.99,BCS,2013-08-04 12:20:00,
2013-08-04 05:25:00,59.8,60.0,30.87,ENE,71,0.0,3.3,100,0.00,NA,NA,-99.99,BCS,2013-08-04 12:25:00,
2013-08-04 05:30:00,59.8,60.0,30.87,ENE,72,0.6,2.4,100,0.00,NA,NA,-99.99,BCS,2013-08-04 12:30:00,
2013-08-04 05:35:00,59.8,60.0,30.87,NE,42,1.2,2.1,100,0.00,NA,NA,-99.99,BCS,2013-08-04 12:35:00,
2013-08-04 05:45:00,59.8,60.0,30.87,East,93,0.6,1.5,100,0.00,NA,NA,-99.99,BCS,2013-08-04 12:45:00,
2013-08-04 05:49:00,59.7,60.0,30.87,East,94,1.2,3.6,100,0.00,NA,NA,-99.99,BCS,2013-08-04 12:49:00,
2013-08-04 05:55:00,59.7,60.0,30.87,East,93,0.0,2.1,100,0.00,NA,NA,-99.99,BCS,2013-08-04 12:55:00,
2013-08-04 06:00:00,59.8,60.0,30.87,ESE,106,0.3,2.7,100,0.00,NA,NA,-99.99,BCS,2013-08-04 13:00:00,
2013-08-04 06:05:00,59.8,60.0,30.88,ESE,106,0.9,1.5,100,0.00,NA,NA,-99.99,BCS,2013-08-04 13:05:00,
2013-08-04 06:15:00,59.7,60.0,30.88,East,79,0.3,3.3,100,0.00,NA,NA,-99.99,BCS,2013-08-04 13:15:00,
2013-08-04 06:20:00,59.9,60.0,30.88,ESE,104,1.2,1.8,100,0.00,NA,NA,-99.99,BCS,2013-08-04 13:20:00,
2013-08-04 06:25:00,59.9,60.0,30.88,SE,135,0.3,3.3,100,0.00,NA,NA,-99.99,BCS,2013-08-04 13:25:00,
2013-08-04 06:35:00,59.7,60.0,30.87,NE,55,1.8,3.3,100,0.00,NA,NA,-99.99,BCS,2013-08-04 13:35:00,
2013-08-04 06:45:00,59.6,60.0,30.88,NNE,22,0.0,3.9,100,0.00,NA,NA,-99.99,BCS,2013-08-04 13:45:00,
2013-08-04 06:55:00,59.6,60.0,30.88,North,1,1.8,2.4,100,0.00,NA,NA,-99.99,BCS,2013-08-04 13:55:00,
2013-08-04 07:00:00,59.7,60.0,30.88,NE,51,0.9,2.4,100,0.00,NA,NA,-99.99,BCS,2013-08-04 14:00:00,
2013-08-04 07:10:00,59.8,60.0,30.88,East,81,0.9,2.4,100,0.00,NA,NA,-99.99,BCS,2013-08-04 14:10:00,
2013-08-04 07:14:00,59.7,60.0,30.88,North,11,0.9,4.2,100,0.00,NA,NA,-99.99,BCS,2013-08-04 14:14:00,
2013-08-04 07:20:00,59.6,60.0,30.88,ENE,71,1.8,3.6,100,0.00,NA,NA,-99.99,BCS,2013-08-04 14:20:00,
2013-08-04 07:25:00,59.7,60.0,30.88,ESE,120,0.0,3.3,100,0.00,NA,NA,-99.99,BCS,2013-08-04 14:25:00,
2013-08-04 07:30:00,59.9,60.0,30.88,SSE,157,0.9,2.4,100,0.00,NA,NA,-99.99,BCS,2013-08-04 14:30:00,
2013-08-04 07:35:00,60.0,60.0,30.88,SSE,158,0.0,1.5,100,0.00,NA,NA,-99.99,BCS,2013-08-04 14:35:00,
2013-08-04 07:40:00,60.0,60.0,30.88,NE,37,1.8,3.0,100,0.00,NA,NA,-99.99,BCS,2013-08-04 14:40:00,
2013-08-04 07:45:00,60.0,60.0,30.88,NNE,32,0.9,3.0,100,0.00,NA,NA,-99.99,BCS,2013-08-04 14:45:00,
2013-08-04 07:55:00,60.0,60.0,30.89,NNE,33,2.1,3.6,100,0.00,NA,NA,-99.99,BCS,2013-08-04 14:55:00,
2013-08-04 08:04:00,60.1,60.0,30.89,ENE,70,1.2,2.1,100,0.00,NA,NA,-99.99,BCS,2013-08-04 15:04:00,
2013-08-04 08:10:00,60.2,60.0,30.89,South,184,0.9,2.7,100,0.00,NA,NA,-99.99,BCS,2013-08-04 15:10:00,
2013-08-04 08:14:00,60.3,60.0,30.89,East,90,1.2,3.6,100,0.00,NA,NA,-99.99,BCS,2013-08-04 15:14:00,
2013-08-04 08:20:00,60.5,60.0,30.89,NE,34,0.9,2.4,100,0.00,NA,NA,-99.99,BCS,2013-08-04 15:20:00,
2013-08-04 08:25:00,60.6,61.0,30.89,NE,51,0.3,2.1,100,0.00,NA,NA,-99.99,BCS,2013-08-04 15:25:00,
2013-08-04 08:30:00,60.9,61.0,30.89,SSE,166,0.0,3.0,100,0.00,NA,NA,-99.99,BCS,2013-08-04 15:30:00,
2013-08-04 08:40:00,60.9,61.0,30.89,East,81,1.5,4.2,100,0.00,NA,NA,-99.99,BCS,2013-08-04 15:40:00,
2013-08-04 08:44:00,61.0,61.0,30.89,North,357,2.1,4.2,100,0.00,NA,NA,-99.99,BCS,2013-08-04 15:44:00,
2013-08-04 08:50:00,61.2,61.0,30.89,SSE,152,1.2,3.9,100,0.00,NA,NA,-99.99,BCS,2013-08-04 15:50:00,
2013-08-04 08:54:00,61.7,62.0,30.89,East,96,0.9,4.2,100,0.00,NA,NA,-99.99,BCS,2013-08-04 15:54:00,
2013-08-04 09:00:00,61.6,62.0,30.89,ENE,68,1.5,4.2,100,0.00,NA,NA,-99.99,BCS,2013-08-04 16:00:00,
2013-08-04 09:10:00,61.9,62.0,30.89,East,81,2.1,3.9,100,0.00,NA,NA,-99.99,BCS,2013-08-04 16:10:00,
2013-08-04 09:15:00,61.8,62.0,30.89,East,86,2.4,3.9,100,0.00,NA,NA,-99.99,BCS,2013-08-04 16:15:00,
2013-08-04 09:20:00,62.4,62.0,30.89,NNE,14,1.5,5.4,100,0.00,NA,NA,-99.99,BCS,2013-08-04 16:20:00,
2013-08-04 09:25:00,62.7,63.0,30.90,NE,35,1.2,3.0,100,0.00,NA,NA,-99.99,BCS,2013-08-04 16:25:00,
2013-08-04 09:30:00,62.4,61.0,30.89,ENE,60,4.2,4.8,97,0.00,NA,NA,-99.99,BCS,2013-08-04 16:30:00,
2013-08-04 09:39:00,62.3,61.0,30.89,NW,320,2.7,4.2,98,0.00,NA,NA,-99.99,BCS,2013-08-04 16:39:00,
2013-08-04 09:50:00,62.3,62.0,30.89,North,0,3.0,5.1,99,0.00,NA,NA,-99.99,BCS,2013-08-04 16:50:00,
2013-08-04 09:55:00,62.6,63.0,30.89,NNW,337,1.8,4.8,100,0.00,NA,NA,-99.99,BCS,2013-08-04 16:55:00,
2013-08-04 10:00:00,63.2,63.0,30.89,NNE,32,0.9,5.4,100,0.00,NA,NA,-99.99,BCS,2013-08-04 17:00:00,
2013-08-04 10:10:00,63.9,63.0,30.90,NNE,29,0.9,6.0,97,0.00,NA,NA,-99.99,BCS,2013-08-04 17:10:00,
2013-08-04 10:15:00,64.1,62.0,30.89,ENE,65,3.0,5.7,94,0.00,NA,NA,-99.99,BCS,2013-08-04 17:15:00,
2013-08-04 10:20:00,64.5,63.0,30.89,North,349,3.0,6.6,94,0.00,NA,NA,-99.99,BCS,2013-08-04 17:20:00,
2013-08-04 10:25:00,65.3,63.0,30.89,NE,41,1.5,6.6,95,0.00,NA,NA,-99.99,BCS,2013-08-04 17:25:00,
2013-08-04 10:30:00,66.0,64.0,30.89,North,11,0.9,4.5,93,0.00,NA,NA,-99.99,BCS,2013-08-04 17:30:00,
2013-08-04 10:35:00,65.8,63.0,30.89,NNW,343,4.8,6.0,90,0.00,NA,NA,-99.99,BCS,2013-08-04 17:35:00,
2013-08-04 10:39:00,65.7,63.0,30.89,NNW,347,3.9,5.4,90,0.00,NA,NA,-99.99,BCS,2013-08-04 17:39:00,
2013-08-04 10:45:00,66.4,63.0,30.89,NNW,333,1.5,5.1,90,0.00,NA,NA,-99.99,BCS,2013-08-04 17:45:00,
2013-08-04 10:50:00,66.4,62.0,30.89,West,271,2.4,8.7,89,0.00,NA,NA,-99.99,BCS,2013-08-04 17:50:00,
2013-08-04 10:55:00,65.7,62.0,30.89,North,353,5.4,7.8,88,0.00,NA,NA,-99.99,BCS,2013-08-04 17:55:00,
2013-08-04 11:00:00,66.1,63.0,30.89,NNE,17,4.8,7.2,89,0.00,NA,NA,-99.99,BCS,2013-08-04 18:00:00,
2013-08-04 11:05:00,65.6,62.0,30.89,NW,309,5.7,9.6,88,0.00,NA,NA,-99.99,BCS,2013-08-04 18:05:00,
2013-08-04 11:09:00,65.9,63.0,30.89,NNE,19,2.7,9.6,89,0.00,NA,NA,-99.99,BCS,2013-08-04 18:09:00,
2013-08-04 11:20:00,67.1,64.0,30.89,ENE,70,2.1,9.0,90,0.00,NA,NA,-99.99,BCS,2013-08-04 18:20:00,
2013-08-04 11:25:00,67.9,64.0,30.89,East,96,1.2,5.7,87,0.00,NA,NA,-99.99,BCS,2013-08-04 18:25:00,
2013-08-04 11:30:00,68.9,64.0,30.89,ESE,109,2.7,5.4,85,0.00,NA,NA,-99.99,BCS,2013-08-04 18:30:00,
2013-08-04 11:35:00,69.5,64.0,30.89,North,351,2.4,6.9,83,0.00,NA,NA,-99.99,BCS,2013-08-04 18:35:00,
2013-08-04 11:44:00,69.4,63.0,30.89,North,3,1.2,6.3,83,0.00,NA,NA,-99.99,BCS,2013-08-04 18:44:00,
2013-08-04 11:50:00,69.5,63.0,30.89,NNW,329,2.1,4.5,81,0.00,NA,NA,-99.99,BCS,2013-08-04 18:50:00,
2013-08-04 11:55:00,69.6,63.0,30.89,NNW,332,4.8,6.6,78,0.00,NA,NA,-99.99,BCS,2013-08-04 18:55:00,
2013-08-04 12:00:00,68.0,62.0,30.89,NW,309,2.7,11.1,82,0.00,NA,NA,-99.99,BCS,2013-08-04 19:00:00,
2013-08-04 12:04:00,68.5,63.0,30.89,North,5,2.1,8.4,84,0.00,NA,NA,-99.99,BCS,2013-08-04 19:04:00,
2013-08-04 12:10:00,68.0,62.0,30.89,North,3,6.6,9.6,82,0.00,NA,NA,-99.99,BCS,2013-08-04 19:10:00,
2013-08-04 12:15:00,68.7,64.0,30.89,NNW,338,4.2,9.0,84,0.00,NA,NA,-99.99,BCS,2013-08-04 19:15:00,
2013-08-04 12:24:00,68.8,64.0,30.89,NNE,31,2.4,6.9,83,0.00,NA,NA,-99.99,BCS,2013-08-04 19:24:00,
2013-08-04 12:29:00,69.3,63.0,30.88,NE,55,5.4,6.3,81,0.00,NA,NA,-99.99,BCS,2013-08-04 19:29:00,
2013-08-04 12:35:00,70.4,64.0,30.89,North,2,1.8,6.3,82,0.00,NA,NA,-99.99,BCS,2013-08-04 19:35:00,
2013-08-04 12:39:00,70.5,64.0,30.88,NNW,337,3.0,9.6,77,0.00,NA,NA,-99.99,BCS,2013-08-04 19:39:00,
2013-08-04 12:44:00,69.5,63.0,30.88,North,4,2.7,9.6,79,0.00,NA,NA,-99.99,BCS,2013-08-04 19:44:00,
2013-08-04 12:55:00,70.3,63.0,30.88,NW,313,3.0,9.0,80,0.00,NA,NA,-99.99,BCS,2013-08-04 19:55:00,
2013-08-04 13:00:00,71.0,64.0,30.88,ESE,107,0.0,8.4,78,0.00,NA,NA,-99.99,BCS,2013-08-04 20:00:00,
2013-08-04 13:04:00,71.0,63.0,30.88,NNW,347,4.8,8.1,75,0.00,NA,NA,-99.99,BCS,2013-08-04 20:04:00,
2013-08-04 13:10:00,70.1,62.0,30.88,NW,322,3.0,13.5,76,0.00,NA,NA,-99.99,BCS,2013-08-04 20:10:00,
2013-08-04 13:14:00,70.2,63.0,30.88,NNE,12,0.9,9.9,78,0.00,NA,NA,-99.99,BCS,2013-08-04 20:14:00,
2013-08-04 13:20:00,70.2,63.0,30.88,North,355,3.0,9.9,78,0.00,NA,NA,-99.99,BCS,2013-08-04 20:20:00,
2013-08-04 13:25:00,70.5,63.0,30.88,NE,36,3.6,7.2,78,0.00,NA,NA,-99.99,BCS,2013-08-04 20:25:00,
2013-08-04 13:30:00,71.4,64.0,30.87,North,355,5.1,7.5,76,0.00,NA,NA,-99.99,BCS,2013-08-04 20:30:00,
2013-08-04 13:35:00,71.4,62.0,30.87,NW,315,5.1,9.0,74,0.00,NA,NA,-99.99,BCS,2013-08-04 20:35:00,
2013-08-04 13:45:00,71.2,63.0,30.87,NNW,338,4.5,9.0,74,0.00,NA,NA,-99.99,BCS,2013-08-04 20:45:00,
2013-08-04 13:50:00,71.5,63.0,30.87,NW,321,2.7,9.0,76,0.00,NA,NA,-99.99,BCS,2013-08-04 20:50:00,
2013-08-04 13:55:00,70.9,62.0,30.87,NNE,14,7.2,10.8,73,0.00,NA,NA,-99.99,BCS,2013-08-04 20:55:00,
2013-08-04 13:59:00,71.4,63.0,30.87,NW,321,4.2,11.1,76,0.00,NA,NA,-99.99,BCS,2013-08-04 20:59:00,
2013-08-04 14:10:00,71.3,63.0,30.87,NNE,20,2.4,10.2,75,0.00,NA,NA,-99.99,BCS,2013-08-04 21:10:00,
2013-08-04 14:15:00,70.4,61.0,30.87,NNW,346,3.9,10.8,74,0.00,NA,NA,-99.99,BCS,2013-08-04 21:15:00,
2013-08-04 14:20:00,71.0,62.0,30.87,North,357,5.1,8.1,74,0.00,NA,NA,-99.99,BCS,2013-08-04 21:20:00,
2013-08-04 14:25:00,70.6,62.0,30.86,NW,322,3.9,10.2,75,0.00,NA,NA,-99.99,BCS,2013-08-04 21:25:00,
2013-08-04 14:29:00,70.8,63.0,30.87,North,8,8.1,10.2,76,0.00,NA,NA,-99.99,BCS,2013-08-04 21:29:00,
2013-08-04 14:35:00,70.6,63.0,30.86,NW,308,5.1,11.1,75,0.00,NA,NA,-99.99,BCS,2013-08-04 21:35:00,
2013-08-04 14:40:00,70.7,63.0,30.86,NNW,330,6.9,9.0,76,0.00,NA,NA,-99.99,BCS,2013-08-04 21:40:00,
2013-08-04 14:44:00,70.6,63.0,30.86,North,2,5.7,8.4,75,0.00,NA,NA,-99.99,BCS,2013-08-04 21:44:00,
2013-08-04 14:55:00,70.7,64.0,30.86,North,3,3.6,7.2,78,0.00,NA,NA,-99.99,BCS,2013-08-04 21:55:00,
2013-08-04 15:00:00,70.7,63.0,30.86,North,354,3.6,10.2,77,0.00,NA,NA,-99.99,BCS,2013-08-04 22:00:00,
2013-08-04 15:10:00,71.3,63.0,30.86,WNW,303,2.4,11.4,76,0.00,NA,NA,-99.99,BCS,2013-08-04 22:10:00,
2013-08-04 15:15:00,71.2,62.0,30.86,East,101,2.4,7.5,74,0.00,NA,NA,-99.99,BCS,2013-08-04 22:15:00,
2013-08-04 15:20:00,70.7,62.0,30.85,North,2,3.0,8.4,73,0.00,NA,NA,-99.99,BCS,2013-08-04 22:20:00,
2013-08-04 15:25:00,71.6,63.0,30.85,North,350,5.4,6.3,74,0.00,NA,NA,-99.99,BCS,2013-08-04 22:25:00,
2013-08-04 15:30:00,70.5,63.0,30.85,NE,34,7.8,11.7,74,0.00,NA,NA,-99.99,BCS,2013-08-04 22:30:00,
2013-08-04 15:35:00,70.2,62.0,30.85,NW,319,2.4,10.5,75,0.00,NA,NA,-99.99,BCS,2013-08-04 22:35:00,
2013-08-04 15:45:00,70.6,62.0,30.85,NE,52,3.3,9.9,76,0.00,NA,NA,-99.99,BCS,2013-08-04 22:45:00,
2013-08-04 15:55:00,70.9,62.0,30.85,North,8,2.1,8.7,75,0.00,NA,NA,-99.99,BCS,2013-08-04 22:55:00,
2013-08-04 16:00:00,71.2,62.0,30.85,NNW,332,2.4,7.5,74,0.00,NA,NA,-99.99,BCS,2013-08-04 23:00:00,
2013-08-04 16:10:00,70.8,62.0,30.85,NNW,332,2.7,9.9,74,0.00,NA,NA,-99.99,BCS,2013-08-04 23:10:00,
2013-08-04 16:20:00,70.8,62.0,30.84,NNW,345,3.6,8.1,75,0.00,NA,NA,-99.99,BCS,2013-08-04 23:20:00,
2013-08-04 16:25:00,71.2,62.0,30.84,NNE,16,2.7,7.5,75,0.00,NA,NA,-99.99,BCS,2013-08-04 23:25:00,
2013-08-04 16:30:00,70.8,62.0,30.84,South,169,2.1,8.7,74,0.00,NA,NA,-99.99,BCS,2013-08-04 23:30:00,
2013-08-04 16:34:00,71.3,62.0,30.84,NNW,331,6.3,9.0,73,0.00,NA,NA,-99.99,BCS,2013-08-04 23:34:00,
2013-08-04 16:39:00,70.9,62.0,30.84,WNW,299,3.0,9.6,74,0.00,NA,NA,-99.99,BCS,2013-08-04 23:39:00,
2013-08-04 16:44:00,71.4,62.0,30.84,ESE,102,2.1,7.2,75,0.00,NA,NA,-99.99,BCS,2013-08-04 23:44:00,
2013-08-04 16:50:00,71.6,63.0,30.84,East,81,2.1,6.9,74,0.00,NA,NA,-99.99,BCS,2013-08-04 23:50:00,
2013-08-04 16:55:00,70.9,62.0,30.84,NNE,15,4.2,8.1,73,0.00,NA,NA,-99.99,BCS,2013-08-04 23:55:00,
2013-08-04 17:00:00,70.6,62.0,30.84,NW,325,3.3,8.1,75,0.00,NA,NA,-99.99,BCS,2013-08-05 00:00:00,
2013-08-04 17:05:00,71.0,62.0,30.84,NNW,331,5.1,8.7,75,0.00,NA,NA,-99.99,BCS,2013-08-05 00:05:00,
2013-08-04 17:10:00,71.2,63.0,30.84,North,6,2.4,6.9,75,0.00,NA,NA,-99.99,BCS,2013-08-05 00:10:00,
2013-08-04 17:15:00,72.2,63.0,30.84,NNE,22,3.0,5.4,75,0.00,NA,NA,-99.99,BCS,2013-08-05 00:15:00,
2013-08-04 17:20:00,71.8,62.0,30.84,ENE,67,2.4,6.0,71,0.00,NA,NA,-99.99,BCS,2013-08-05 00:20:00,
2013-08-04 17:25:00,72.3,62.0,30.84,NE,54,1.5,5.7,72,0.00,NA,NA,-99.99,BCS,2013-08-05 00:25:00,
2013-08-04 17:30:00,72.2,62.0,30.84,NNE,28,1.5,6.0,72,0.00,NA,NA,-99.99,BCS,2013-08-05 00:30:00,
2013-08-04 17:35:00,71.8,62.0,30.84,North,11,1.8,9.9,72,0.00,NA,NA,-99.99,BCS,2013-08-05 00:35:00,
2013-08-04 17:40:00,71.4,62.0,30.84,NW,326,1.5,5.7,73,0.00,NA,NA,-99.99,BCS,2013-08-05 00:40:00,
2013-08-04 17:50:00,70.5,62.0,30.84,NNW,339,3.9,6.9,73,0.00,NA,NA,-99.99,BCS,2013-08-05 00:50:00,
2013-08-04 17:55:00,70.6,61.0,30.84,NE,35,2.7,6.3,75,0.00,NA,NA,-99.99,BCS,2013-08-05 00:55:00,
2013-08-04 17:59:00,70.4,62.0,30.84,NNE,33,2.1,7.8,74,0.00,NA,NA,-99.99,BCS,2013-08-05 00:59:00,
2013-08-04 18:09:00,70.5,62.0,30.84,NNW,337,1.2,5.1,75,0.00,NA,NA,-99.99,BCS,2013-08-05 01:09:00,
2013-08-04 18:15:00,69.7,62.0,30.84,NNE,13,3.9,7.2,75,0.00,NA,NA,-99.99,BCS,2013-08-05 01:15:00,
2013-08-04 18:19:00,69.9,62.0,30.84,NNE,27,0.9,6.0,77,0.00,NA,NA,-99.99,BCS,2013-08-05 01:19:00,
2013-08-04 18:30:00,69.6,63.0,30.84,North,6,1.2,6.0,79,0.00,NA,NA,-99.99,BCS,2013-08-05 01:30:00,
2013-08-04 18:35:00,69.2,62.0,30.84,East,95,0.6,4.5,79,0.00,NA,NA,-99.99,BCS,2013-08-05 01:35:00,
2013-08-04 18:39:00,69.3,62.0,30.84,NNE,23,1.5,7.2,79,0.00,NA,NA,-99.99,BCS,2013-08-05 01:39:00,
2013-08-04 18:45:00,68.9,61.0,30.84,ENE,71,3.3,4.8,75,0.00,NA,NA,-99.99,BCS,2013-08-05 01:45:00,
2013-08-04 18:49:00,69.1,61.0,30.85,North,4,1.2,6.0,76,0.00,NA,NA,-99.99,BCS,2013-08-05 01:49:00,
2013-08-04 19:00:00,68.7,61.0,30.85,NE,55,2.7,2.7,75,0.00,NA,NA,-99.99,BCS,2013-08-05 02:00:00,
2013-08-04 19:05:00,68.7,61.0,30.85,North,352,1.5,3.0,75,0.00,NA,NA,-99.99,BCS,2013-08-05 02:05:00,
2013-08-04 19:15:00,68.4,60.0,30.85,ENE,64,1.5,3.3,75,0.00,NA,NA,-99.99,BCS,2013-08-05 02:15:00,
2013-08-04 19:20:00,68.2,60.0,30.85,NNW,329,2.1,2.7,75,0.00,NA,NA,-99.99,BCS,2013-08-05 02:20:00,
2013-08-04 19:29:00,67.6,60.0,30.85,ENE,57,0.6,3.6,77,0.00,NA,NA,-99.99,BCS,2013-08-05 02:29:00,
2013-08-04 19:35:00,67.1,59.0,30.86,NE,55,0.9,2.4,77,0.00,NA,NA,-99.99,BCS,2013-08-05 02:35:00,
2013-08-04 19:40:00,66.6,60.0,30.86,SSE,158,0.9,3.9,78,0.00,NA,NA,-99.99,BCS,2013-08-05 02:40:00,
2013-08-04 19:45:00,66.1,59.0,30.86,ENE,74,2.4,3.9,78,0.00,NA,NA,-99.99,BCS,2013-08-05 02:45:00,
2013-08-04 19:50:00,65.8,60.0,30.86,SE,143,0.9,3.9,80,0.00,NA,NA,-99.99,BCS,2013-08-05 02:50:00,
2013-08-04 20:00:00,64.5,60.0,30.86,ESE,115,0.9,4.2,83,0.00,NA,NA,-99.99,BCS,2013-08-05 03:00:00,
2013-08-04 20:05:00,64.1,59.0,30.87,SSE,160,0.9,3.3,84,0.00,NA,NA,-99.99,BCS,2013-08-05 03:05:00,
2013-08-04 20:10:00,63.5,58.0,30.87,ESE,114,1.2,2.4,85,0.00,NA,NA,-99.99,BCS,2013-08-05 03:10:00,
2013-08-04 20:15:00,62.9,59.0,30.87,ENE,69,0.9,3.0,86,0.00,NA,NA,-99.99,BCS,2013-08-05 03:15:00,
2013-08-04 20:20:00,62.4,59.0,30.87,SW,226,1.5,2.4,88,0.00,NA,NA,-99.99,BCS,2013-08-05 03:20:00,
2013-08-04 20:25:00,61.8,59.0,30.87,SSE,149,1.8,4.5,90,0.00,NA,NA,-99.99,BCS,2013-08-05 03:25:00,
2013-08-04 20:29:00,61.1,58.0,30.87,ENE,70,2.1,3.0,92,0.00,NA,NA,-99.99,BCS,2013-08-05 03:29:00,
2013-08-04 20:40:00,60.6,59.0,30.88,ENE,58,2.4,2.7,95,0.00,NA,NA,-99.99,BCS,2013-08-05 03:40:00,
2013-08-04 20:45:00,60.7,59.0,30.88,SE,146,2.1,4.8,98,0.00,NA,NA,-99.99,BCS,2013-08-05 03:45:00,
2013-08-04 20:50:00,60.2,59.0,30.88,SSE,161,2.1,4.2,97,0.00,NA,NA,-99.99,BCS,2013-08-05 03:50:00,
2013-08-04 20:55:00,60.0,59.0,30.89,East,89,1.8,4.2,98,0.00,NA,NA,-99.99,BCS,2013-08-05 03:55:00,
2013-08-04 21:00:00,59.8,60.0,30.89,ESE,122,2.1,3.0,99,0.00,NA,NA,-99.99,BCS,2013-08-05 04:00:00,
2013-08-04 21:05:00,59.8,60.0,30.89,South,190,2.7,3.6,100,0.00,NA,NA,-99.99,BCS,2013-08-05 04:05:00,
2013-08-04 21:09:00,59.6,60.0,30.89,SSW,193,1.2,3.0,100,0.00,NA,NA,-99.99,BCS,2013-08-05 04:09:00,
2013-08-04 21:15:00,59.5,60.0,30.89,ENE,67,0.6,3.0,100,0.00,NA,NA,-99.99,BCS,2013-08-05 04:15:00,
2013-08-04 21:20:00,59.4,59.0,30.89,SSE,159,0.6,2.4,100,0.00,NA,NA,-99.99,BCS,2013-08-05 04:20:00,
2013-08-04 21:30:00,59.5,60.0,30.90,NNE,29,0.3,3.3,100,0.00,NA,NA,-99.99,BCS,2013-08-05 04:30:00,
2013-08-04 21:34:00,59.5,60.0,30.90,East,89,1.8,3.0,100,0.00,NA,NA,-99.99,BCS,2013-08-05 04:34:00,
2013-08-04 21:40:00,59.5,60.0,30.90,East,80,3.9,4.5,100,0.00,NA,NA,-99.99,BCS,2013-08-05 04:40:00,
2013-08-04 21:45:00,59.5,60.0,30.90,East,80,1.2,4.5,100,0.00,NA,NA,-99.99,BCS,2013-08-05 04:45:00,
2013-08-04 21:49:00,59.6,60.0,30.90,SE,145,0.3,3.9,100,0.00,NA,NA,-99.99,BCS,2013-08-05 04:49:00,
2013-08-04 21:54:00,59.9,60.0,30.90,SSW,205,0.9,3.0,100,0.00,NA,NA,-99.99,BCS,2013-08-05 04:54:00,
2013-08-04 22:00:00,59.9,60.0,30.90,SSW,204,0.6,2.4,100,0.00,NA,NA,-99.99,BCS,2013-08-05 05:00:00,
2013-08-04 22:05:00,60.0,60.0,30.90,SSE,147,1.8,3.0,100,0.00,NA,NA,-99.99,BCS,2013-08-05 05:05:00,
2013-08-04 22:15:00,59.9,60.0,30.91,NE,41,2.1,3.6,100,0.00,NA,NA,-99.99,BCS,2013-08-05 05:15:00,
2013-08-04 22:25:00,60.1,60.0,30.91,East,85,1.2,3.9,100,0.00,NA,NA,-99.99,BCS,2013-08-05 05:25:00,
2013-08-04 22:30:00,60.0,60.0,30.90,SE,140,3.0,4.5,100,0.00,NA,NA,-99.99,BCS,2013-08-05 05:30:00,
2013-08-04 22:35:00,60.1,60.0,30.90,NNE,21,0.6,4.8,100,0.00,NA,NA,-99.99,BCS,2013-08-05 05:35:00,
2013-08-04 22:40:00,60.1,60.0,30.90,SW,221,0.9,4.8,100,0.00,NA,NA,-99.99,BCS,2013-08-05 05:40:00,
2013-08-04 22:45:00,60.2,60.0,30.90,NNW,341,0.0,2.4,100,0.00,NA,NA,-99.99,BCS,2013-08-05 05:45:00,
2013-08-04 22:50:00,60.1,60.0,30.90,SSW,195,2.1,3.0,100,0.00,NA,NA,-99.99,BCS,2013-08-05 05:50:00,
2013-08-04 22:55:00,60.4,60.0,30.90,East,81,0.3,4.2,100,0.00,NA,NA,-99.99,BCS,2013-08-05 05:55:00,
2013-08-04 23:04:00,60.4,60.0,30.90,ENE,66,1.5,4.5,100,0.00,NA,NA,-99.99,BCS,2013-08-05 06:04:00,
2013-08-04 23:10:00,60.3,60.0,30.90,NNE,33,1.5,3.9,100,0.00,NA,NA,-99.99,BCS,2013-08-05 06:10:00,
2013-08-04 23:15:00,60.4,60.0,30.90,East,84,1.5,4.8,100,0.00,NA,NA,-99.99,BCS,2013-08-05 06:15:00,
2013-08-04 23:25:00,60.6,61.0,30.90,ESE,123,1.2,3.9,100,0.00,NA,NA,-99.99,BCS,2013-08-05 06:25:00,
2013-08-04 23:30:00,60.5,61.0,30.90,SSW,196,1.2,3.3,100,0.00,NA,NA,-99.99,BCS,2013-08-05 06:30:00,
2013-08-04 23:35:00,60.7,61.0,30.90,South,169,1.5,3.3,100,0.00,NA,NA,-99.99,BCS,2013-08-05 06:35:00,
2013-08-04 23:40:00,60.8,61.0,30.90,SSW,203,3.0,3.9,100,0.00,NA,NA,-99.99,BCS,2013-08-05 06:40:00,
2013-08-04 23:45:00,61.0,61.0,30.90,WNW,302,1.5,3.9,100,0.00,NA,NA,-99.99,BCS,2013-08-05 06:45:00,
2013-08-04 23:50:00,60.9,61.0,30.90,SE,132,2.4,3.6,100,0.00,NA,NA,-99.99,BCS,2013-08-05 06:50:00,
2013-08-04 23:55:00,60.9,61.0,30.90,SSE,154,0.6,3.6,100,0.00,NA,NA,-99.99,BCS,2013-08-05 06:55:00,